User: anonymous   Login
Location: Arroyo Grande
(40.2671°N, 4.2512°W)
Time: 04:40:14
(UTC+00:00)
Language:

Cosmos 841 Rocket - Orbit

View from above orbital plane
View from above orbital plane
View from above satellite
View from above satellite

Ground track
Ground track

The orbit data is extracted from the following two-line orbital elements,

1 09023U 76069B   24170.94552073  .00000332  00000-0  11261-3 0  9993
2 09023  74.0437  52.8093 0017972 303.4577  56.4859 14.40417673512780
Epoch (UTC): 18 June 2024 22:41:32
Eccentricity: 0.0017972
inclination: 74.0437°
perigee height: 744 km
apogee height: 770 km
right ascension of ascending node: 52.8093°
argument of perigee: 303.4577°
revolutions per day: 14.40417673
mean anomaly at epoch: 56.4859°
orbit number at epoch: 51278

The dashed part of the orbit path shows where the satellite is in the earth's shadow,  

DLR